TimeCST,TemperatureF,Dew PointF,Humidity,Sea Level PressureIn,VisibilityMPH,Wind Direction,Wind SpeedMPH,Gust SpeedMPH,PrecipitationIn,Events,Conditions,WindDirDegrees,DateUTC
12:15 AM,64.9,54.1,68,29.99,10.0,South,8.1,-,N/A,,Clear,170,2012-11-10 06:15:00
12:35 AM,64.6,54.0,68,29.99,10.0,SSE,9.2,-,N/A,,Clear,160,2012-11-10 06:35:00
12:55 AM,64.4,54.1,69,29.99,10.0,South,9.2,-,N/A,,Clear,170,2012-11-10 06:55:00
1:15 AM,63.7,54.1,71,29.99,10.0,SSE,6.9,-,N/A,,Clear,160,2012-11-10 07:15:00
1:35 AM,62.8,54.3,74,30.00,10.0,SSE,4.6,-,N/A,,Clear,160,2012-11-10 07:35:00
1:55 AM,61.7,54.5,77,30.00,10.0,SSE,4.6,-,N/A,,Clear,160,2012-11-10 07:55:00
2:15 AM,62.6,55.4,77,30.00,10.0,SSE,6.9,-,N/A,,Mostly Cloudy,160,2012-11-10 08:15:00
2:35 AM,63.1,55.9,77,30.00,10.0,SSE,6.9,-,N/A,,Overcast,160,2012-11-10 08:35:00
2:55 AM,63.7,57.2,79,30.00,10.0,SSE,6.9,-,N/A,,Overcast,160,2012-11-10 08:55:00
3:15 AM,63.7,57.6,80,30.00,10.0,SSE,9.2,-,N/A,,Overcast,160,2012-11-10 09:15:00
3:35 AM,63.7,58.1,82,29.99,10.0,South,10.4,-,N/A,,Overcast,170,2012-11-10 09:35:00
3:55 AM,63.7,58.5,83,29.99,10.0,SSE,6.9,-,N/A,,Overcast,160,2012-11-10 09:55:00
4:15 AM,63.5,59.0,85,30.00,10.0,SSE,9.2,-,N/A,,Overcast,150,2012-11-10 10:15:00
4:35 AM,63.5,59.0,85,30.00,10.0,SSE,8.1,-,N/A,,Overcast,160,2012-11-10 10:35:00
4:55 AM,63.5,59.2,86,30.01,10.0,SSE,9.2,-,N/A,,Overcast,160,2012-11-10 10:55:00
5:15 AM,63.7,59.4,86,30.01,10.0,SSE,6.9,-,N/A,,Overcast,160,2012-11-10 11:15:00
5:35 AM,63.5,59.4,86,30.02,10.0,SSE,9.2,16.1,N/A,,Overcast,150,2012-11-10 11:35:00
5:55 AM,63.5,59.4,86,30.03,10.0,SSE,5.8,9.2,N/A,,Overcast,160,2012-11-10 11:55:00
6:35 AM,62.2,59.0,89,30.03,10.0,SSE,6.9,-,N/A,,Overcast,160,2012-11-10 12:35:00
6:55 AM,61.9,59.0,90,30.03,10.0,SSE,6.9,-,N/A,,Overcast,150,2012-11-10 12:55:00
7:15 AM,62.1,59.0,90,30.03,10.0,SSE,6.9,-,N/A,,Overcast,150,2012-11-10 13:15:00
7:35 AM,62.1,59.0,90,30.04,10.0,SSE,9.2,-,N/A,,Overcast,160,2012-11-10 13:35:00
7:55 AM,62.6,59.2,89,30.05,10.0,SSE,8.1,-,N/A,,Overcast,160,2012-11-10 13:55:00
8:15 AM,63.7,59.4,86,30.05,10.0,SSE,10.4,-,N/A,,Overcast,150,2012-11-10 14:15:00
8:35 AM,64.4,59.4,84,30.06,10.0,SSE,9.2,17.3,N/A,,Overcast,160,2012-11-10 14:35:00
8:55 AM,64.9,59.5,83,30.05,10.0,South,12.7,18.4,N/A,,Overcast,170,2012-11-10 14:55:00
9:15 AM,66.0,59.5,80,30.05,10.0,South,16.1,21.9,N/A,,Mostly Cloudy,170,2012-11-10 15:15:00
9:35 AM,66.2,59.4,79,30.04,10.0,SSE,10.4,24.2,N/A,,Mostly Cloudy,160,2012-11-10 15:35:00
9:55 AM,67.5,59.7,76,30.04,10.0,South,15.0,20.7,N/A,,Mostly Cloudy,170,2012-11-10 15:55:00
10:15 AM,69.1,59.9,72,30.03,10.0,South,10.4,20.7,N/A,,Mostly Cloudy,170,2012-11-10 16:15:00
10:35 AM,70.0,59.9,70,30.03,10.0,South,17.3,24.2,N/A,,Mostly Cloudy,170,2012-11-10 16:35:00
10:55 AM,69.6,59.7,71,30.01,10.0,South,11.5,21.9,N/A,,Overcast,180,2012-11-10 16:55:00
11:15 AM,70.2,59.7,69,30.01,10.0,South,11.5,19.6,N/A,,Overcast,180,2012-11-10 17:15:00
11:35 AM,72.3,59.2,63,30.00,10.0,South,11.5,19.6,N/A,,Overcast,180,2012-11-10 17:35:00
11:55 AM,73.8,58.6,59,29.98,10.0,South,13.8,24.2,N/A,,Mostly Cloudy,190,2012-11-10 17:55:00
12:15 PM,73.9,59.0,59,29.97,10.0,South,10.4,23.0,N/A,,Overcast,170,2012-11-10 18:15:00
12:35 PM,76.6,58.5,53,29.96,10.0,SSW,10.4,19.6,N/A,,Overcast,200,2012-11-10 18:35:00
12:55 PM,76.8,57.9,52,29.94,10.0,South,12.7,23.0,N/A,,Mostly Cloudy,190,2012-11-10 18:55:00
1:15 PM,77.0,57.4,51,29.93,10.0,South,15.0,24.2,N/A,,Scattered Clouds,190,2012-11-10 19:15:00
1:35 PM,78.8,57.2,47,29.92,10.0,SSW,15.0,21.9,N/A,,Mostly Cloudy,200,2012-11-10 19:35:00
1:55 PM,76.6,56.5,50,29.92,10.0,South,15.0,24.2,N/A,,Mostly Cloudy,190,2012-11-10 19:55:00
2:15 PM,77.0,57.0,50,29.91,10.0,North,-9999.0,-,N/A,,Mostly Cloudy,0,2012-11-10 20:15:00
2:35 PM,75.9,57.0,52,29.90,10.0,South,12.7,23.0,N/A,,Mostly Cloudy,170,2012-11-10 20:35:00
2:55 PM,78.4,57.4,48,29.90,10.0,South,11.5,25.3,N/A,,Overcast,180,2012-11-10 20:55:00
3:15 PM,78.8,55.9,45,29.90,10.0,South,12.7,20.7,N/A,,Overcast,180,2012-11-10 21:15:00
3:35 PM,77.4,55.8,47,29.89,10.0,North,-9999.0,-,N/A,,Scattered Clouds,0,2012-11-10 21:35:00
3:55 PM,77.0,56.3,49,29.89,10.0,South,17.3,23.0,N/A,,Clear,170,2012-11-10 21:55:00
4:15 PM,75.7,56.1,50,29.89,10.0,South,16.1,29.9,N/A,,Mostly Cloudy,170,2012-11-10 22:15:00
4:35 PM,75.2,56.3,52,29.90,10.0,South,11.5,-,N/A,,Mostly Cloudy,170,2012-11-10 22:35:00
4:55 PM,75.2,56.5,52,29.89,10.0,SSE,12.7,23.0,N/A,,Scattered Clouds,160,2012-11-10 22:55:00
5:15 PM,74.3,56.5,54,29.90,10.0,South,13.8,18.4,N/A,,Mostly Cloudy,170,2012-11-10 23:15:00
5:35 PM,73.8,56.3,54,29.90,10.0,SSE,12.7,20.7,N/A,,Scattered Clouds,160,2012-11-10 23:35:00
5:55 PM,73.0,56.3,56,29.90,10.0,SSE,12.7,21.9,N/A,,Scattered Clouds,160,2012-11-10 23:55:00
6:15 PM,72.7,56.5,57,29.90,10.0,SSE,10.4,18.4,N/A,,Clear,160,2012-11-11 00:15:00
6:35 PM,71.8,56.5,58,29.89,10.0,SSE,12.7,18.4,N/A,,Clear,150,2012-11-11 00:35:00
6:55 PM,71.2,57.2,61,29.89,10.0,SSE,11.5,19.6,N/A,,Clear,150,2012-11-11 00:55:00
7:15 PM,71.1,57.4,62,29.89,10.0,SSE,9.2,19.6,N/A,,Clear,150,2012-11-11 01:15:00
7:35 PM,70.9,57.6,63,29.89,10.0,SE,9.2,18.4,N/A,,Clear,140,2012-11-11 01:35:00
7:55 PM,70.7,57.4,63,29.88,10.0,SSE,10.4,19.6,N/A,,Clear,150,2012-11-11 01:55:00
8:15 PM,70.3,57.7,64,29.88,10.0,SSE,10.4,19.6,N/A,,Clear,150,2012-11-11 02:15:00
8:35 PM,70.0,58.1,66,29.89,10.0,SSE,10.4,20.7,N/A,,Clear,160,2012-11-11 02:35:00
8:55 PM,70.0,58.5,67,29.89,10.0,SSE,12.7,20.7,N/A,,Clear,150,2012-11-11 02:55:00
9:15 PM,69.8,58.5,67,29.88,10.0,SSE,19.6,27.6,N/A,,Clear,160,2012-11-11 03:15:00
9:35 PM,69.4,58.3,68,29.89,10.0,SSE,11.5,20.7,N/A,,Clear,160,2012-11-11 03:35:00
10:15 PM,68.2,58.1,70,29.89,10.0,South,12.7,17.3,N/A,,Clear,170,2012-11-11 04:15:00
10:35 PM,68.0,58.1,71,29.89,10.0,SSE,10.4,17.3,N/A,,Scattered Clouds,160,2012-11-11 04:35:00
10:55 PM,68.2,58.1,70,29.88,10.0,South,13.8,23.0,N/A,,Clear,170,2012-11-11 04:55:00
11:35 PM,68.9,58.1,68,29.89,10.0,South,11.5,24.2,N/A,,Clear,170,2012-11-11 05:35:00
11:55 PM,69.3,58.3,68,29.88,10.0,South,17.3,23.0,N/A,,Mostly Cloudy,170,2012-11-11 05:55:00